sat.trackr.live / text

‹ back to catalog

STARLINK-3849

NORAD 52343 · 2022-045N

PAYLOAD ACTIVE UNKNOWN

§ Identity

Operator
Country
US
Launch date
2022-04-29
Launch site
AFETR
Launch vehicle
Mass (kg)
RCS (m²)

Purposes: comms

External: N2YO · Heavens-Above · Gunter

§ Orbital elements

Epoch: 2026-05-24T16:56:25.022688Z

Period
95.44 min
Inclination
53.2126°
Eccentricity
0.0000879
Mean motion
15.08839146 rev/d
Perigee alt
539.1 km
Apogee alt
540.4 km
Semi-major
6,917.9 km
B*
1.9773e-6
RAAN
227.8718°
Arg perigee
73.8418°
Mean anomaly
286.2671°
Rev number
22,712

§ Raw data

STARLINK-38491 52343U 22045N   26144.70584517 -.00000256  00000+0  19773-5 0  99992 52343  53.2126 227.8718 0000879  73.8418 286.2671 15.08839146227129

JSON: /api/v1/satellites/52343 · /tle

For live sub-satellite position, see the globe view (requires WebGL).

§ Visibility from observer

Set your observer location to see the next 7 days of passes ≥ 10°. The values pass through the URL so the page stays shareable.

No JS? Fill the form by hand. The geolocation button needs JavaScript.